| time (UTC) | temp C | wind direction | speed KPH | gust KPH | rain 1hr cm | rain 24hr cm | rain mn cm | humidity % | barometer mb |
| 20260508052220 | 13 | 225 | 0.0 | 0.0 | 0.00 | 0.00 | 0.00 | 67 | 1027.2 |
| 20260508050319 | 13 | 225 | 0.0 | 0.0 | 0.00 | 0.00 | 0.00 | 67 | 1027.3 |
| 20260508045321 | 14 | 225 | 0.0 | 0.0 | 0.00 | 0.00 | 0.00 | 66 | 1027.2 |
| 20260508044320 | 14 | 225 | 1.6 | 3.2 | 0.00 | 0.00 | 0.00 | 66 | 1027.1 |
| 20260508043321 | 14 | 202 | 0.0 | 0.0 | 0.00 | 0.00 | 0.00 | 64 | 1027.2 |
| 20260508042322 | 15 | 202 | 0.0 | 0.0 | 0.00 | 0.00 | 0.00 | 60 | 1027.1 |
| 20260508041321 | 16 | 202 | 0.0 | 0.0 | 0.00 | 0.00 | 0.00 | 53 | 1027.1 |
| 20260508040321 | 16 | 202 | 0.0 | 0.0 | 0.00 | 0.00 | 0.00 | 55 | 1027.1 |
| 20260508034321 | 17 | 225 | 6.4 | 9.7 | 0.00 | 0.00 | 0.00 | 49 | 1026.6 |
| 20260508033319 | 17 | 225 | 8.0 | 9.7 | 0.00 | 0.00 | 0.00 | 46 | 1026.5 |
| 20260508032321 | 17 | 225 | 8.0 | 11.3 | 0.00 | 0.00 | 0.00 | 44 | 1026.4 |
| 20260508031419 | 18 | 229 | 6.4 | 9.7 | 0.00 | 0.00 | 0.00 | 43 | 1026.4 |
| 20260508030421 | 18 | 229 | 8.0 | 11.3 | 0.00 | 0.00 | 0.00 | 41 | 1026.3 |
| 20260508025420 | 18 | 225 | 11.3 | 14.5 | 0.00 | 0.00 | 0.00 | 40 | 1026.3 |
| 20260508024420 | 18 | 225 | 9.7 | 17.7 | 0.00 | 0.00 | 0.00 | 39 | 1026.3 |
| 20260508023421 | 19 | 223 | 16.1 | 20.9 | 0.00 | 0.00 | 0.00 | 38 | 1026.4 |
| 20260508022422 | 19 | 225 | 17.7 | 22.5 | 0.00 | 0.00 | 0.00 | 37 | 1026.3 |
| 20260508022319 | 19 | 227 | 16.1 | 19.3 | 0.00 | 0.00 | 0.00 | 38 | 1026.4 |
| 20260508021321 | 20 | 225 | 16.1 | 25.7 | 0.00 | 0.00 | 0.00 | 38 | 1026.3 |
| 20260508021219 | 20 | 225 | 16.1 | 20.9 | 0.00 | 0.00 | 0.00 | 38 | 1026.4 |
| 20260508020220 | 20 | 223 | 17.7 | 25.7 | 0.00 | 0.00 | 0.00 | 37 | 1026.2 |
| 20260508015221 | 20 | 218 | 11.3 | 17.7 | 0.00 | 0.00 | 0.00 | 36 | 1026.2 |
| 20260508014319 | 20 | 226 | 16.1 | 22.5 | 0.00 | 0.00 | 0.00 | 36 | 1026.1 |
| 20260508014220 | 20 | 227 | 17.7 | 20.9 | 0.00 | 0.00 | 0.00 | 36 | 1026.2 |
| 20260508013221 | 20 | 225 | 19.3 | 29.0 | 0.00 | 0.00 | 0.00 | 36 | 1026.2 |
| 20260508013119 | 20 | 226 | 14.5 | 22.5 | 0.00 | 0.00 | 0.00 | 36 | 1026.3 |
| 20260508012122 | 20 | 227 | 19.3 | 25.7 | 0.00 | 0.00 | 0.00 | 36 | 1026.2 |
| 20260508011219 | 20 | 224 | 17.7 | 22.5 | 0.00 | 0.00 | 0.00 | 36 | 1026.2 |
| 20260508010221 | 20 | 228 | 22.5 | 29.0 | 0.00 | 0.00 | 0.00 | 36 | 1026.4 |
| 20260508005220 | 20 | 224 | 20.9 | 27.4 | 0.00 | 0.00 | 0.00 | 35 | 1026.6 |
| 20260508004221 | 20 | 221 | 20.9 | 29.0 | 0.00 | 0.00 | 0.00 | 36 | 1026.6 |
| 20260508003221 | 20 | 223 | 20.9 | 29.0 | 0.00 | 0.00 | 0.00 | 35 | 1026.6 |
| 20260508002221 | 20 | 226 | 22.5 | 37.0 | 0.00 | 0.00 | 0.00 | 36 | 1026.6 |
| 20260508001320 | 20 | 223 | 22.5 | 29.0 | 0.00 | 0.00 | 0.00 | 35 | 1026.5 |
| 20260508000322 | 20 | 225 | 25.7 | 35.4 | 0.00 | 0.00 | 0.00 | 35 | 1026.5 |
| 20260507235419 | 20 | 225 | 24.1 | 35.4 | 0.00 | 0.00 | 0.00 | 37 | 1026.5 |
| 20260507235320 | 20 | 217 | 22.5 | 32.2 | 0.00 | 0.00 | 0.00 | 37 | 1026.6 |
| 20260507234418 | 20 | 226 | 27.4 | 35.4 | 0.00 | 0.00 | 0.00 | 37 | 1026.7 |
| 20260507233421 | 20 | 220 | 20.9 | 30.6 | 0.00 | 0.00 | 0.00 | 37 | 1026.6 |
| 20260507232420 | 20 | 226 | 19.3 | 24.1 | 0.00 | 0.00 | 0.00 | 37 | 1026.7 |
| 20260507231420 | 20 | 223 | 24.1 | 32.2 | 0.00 | 0.00 | 0.00 | 37 | 1026.8 |
| 20260507230420 | 19 | 225 | 25.7 | 30.6 | 0.00 | 0.00 | 0.00 | 37 | 1027.0 |
| 20260507224519 | 19 | 223 | 20.9 | 25.7 | 0.00 | 0.00 | 0.00 | 39 | 1027.2 |
| 20260507222520 | 19 | 214 | 19.3 | 29.0 | 0.00 | 0.00 | 0.00 | 41 | 1027.3 |
| 20260507221521 | 18 | 226 | 22.5 | 32.2 | 0.00 | 0.00 | 0.00 | 42 | 1027.4 |
| 20260507220522 | 18 | 221 | 24.1 | 32.2 | 0.00 | 0.00 | 0.00 | 42 | 1027.5 |
| 20260507215521 | 18 | 223 | 20.9 | 27.4 | 0.00 | 0.00 | 0.00 | 43 | 1027.6 |
| 20260507214619 | 18 | 217 | 25.7 | 32.2 | 0.00 | 0.00 | 0.00 | 46 | 1027.9 |
| 20260507214519 | 18 | 222 | 25.7 | 35.4 | 0.00 | 0.00 | 0.00 | 47 | 1027.8 |
| 20260507213520 | 18 | 226 | 24.1 | 35.4 | 0.00 | 0.00 | 0.00 | 48 | 1028.0 |
| 20260507211619 | 18 | 225 | 27.4 | 33.8 | 0.00 | 0.00 | 0.00 | 51 | 1028.0 |
| 20260507210620 | 17 | 225 | 24.1 | 30.6 | 0.00 | 0.00 | 0.00 | 52 | 1028.1 |
| 20260507205719 | 17 | 227 | 20.9 | 27.4 | 0.00 | 0.00 | 0.00 | 54 | 1028.3 |
| 20260507204720 | 17 | 230 | 24.1 | 33.8 | 0.00 | 0.00 | 0.00 | 54 | 1028.4 |
| 20260507203721 | 17 | 230 | 29.0 | 35.4 | 0.00 | 0.00 | 0.00 | 55 | 1028.5 |
| 20260507202721 | 17 | 224 | 24.1 | 32.2 | 0.00 | 0.00 | 0.00 | 56 | 1028.6 |
| 20260507201720 | 17 | 225 | 24.1 | 33.8 | 0.00 | 0.00 | 0.00 | 57 | 1028.8 |
| 20260507200720 | 17 | 227 | 19.3 | 29.0 | 0.00 | 0.00 | 0.00 | 57 | 1028.8 |
| 20260507195719 | 16 | 225 | 22.5 | 27.4 | 0.00 | 0.00 | 0.00 | 58 | 1028.9 |
| 20260507194720 | 16 | 228 | 19.3 | 24.1 | 0.00 | 0.00 | 0.00 | 57 | 1029.0 |
| 20260507193721 | 16 | 226 | 17.7 | 25.7 | 0.00 | 0.00 | 0.00 | 58 | 1029.1 |
| 20260507193620 | 16 | 231 | 19.3 | 25.7 | 0.00 | 0.00 | 0.00 | 58 | 1029.1 |
| 20260507185720 | 15 | 221 | 20.9 | 27.4 | 0.00 | 0.00 | 0.00 | 61 | 1029.7 |
| 20260507184720 | 15 | 227 | 16.1 | 20.9 | 0.00 | 0.00 | 0.00 | 61 | 1029.9 |
| 20260507183720 | 15 | 228 | 22.5 | 29.0 | 0.00 | 0.00 | 0.00 | 62 | 1029.9 |
| 20260507182819 | 15 | 225 | 24.1 | 30.6 | 0.00 | 0.00 | 0.00 | 62 | 1030.0 |
| 20260507181822 | 15 | 223 | 19.3 | 25.7 | 0.00 | 0.00 | 0.00 | 61 | 1030.2 |
| 20260507180820 | 15 | 229 | 20.9 | 29.0 | 0.00 | 0.00 | 0.00 | 63 | 1030.3 |
| 20260507174919 | 14 | 219 | 17.7 | 24.1 | 0.00 | 0.00 | 0.00 | 64 | 1030.5 |
| 20260507174820 | 14 | 223 | 19.3 | 24.1 | 0.00 | 0.00 | 0.00 | 64 | 1030.5 |
| 20260507173820 | 14 | 227 | 20.9 | 25.7 | 0.00 | 0.00 | 0.00 | 65 | 1030.6 |
| 20260507172819 | 14 | 215 | 19.3 | 27.4 | 0.00 | 0.00 | 0.00 | 65 | 1030.6 |
| 20260507171821 | 13 | 233 | 22.5 | 27.4 | 0.00 | 0.00 | 0.00 | 66 | 1030.8 |
| 20260507170919 | 13 | 216 | 16.1 | 24.1 | 0.00 | 0.00 | 0.00 | 66 | 1030.9 |
| 20260507165921 | 13 | 226 | 19.3 | 27.4 | 0.00 | 0.00 | 0.00 | 68 | 1030.8 |
| 20260507165819 | 13 | 226 | 17.7 | 29.0 | 0.00 | 0.00 | 0.00 | 69 | 1030.8 |
| 20260507163920 | 12 | 223 | 12.9 | 17.7 | 0.00 | 0.00 | 0.00 | 70 | 1030.9 |
| 20260507162922 | 12 | 225 | 20.9 | 29.0 | 0.00 | 0.00 | 0.00 | 70 | 1031.0 |
| 20260507162019 | 12 | 226 | 17.7 | 25.7 | 0.00 | 0.00 | 0.00 | 71 | 1030.9 |
| 20260507161020 | 12 | 228 | 22.5 | 32.2 | 0.00 | 0.00 | 0.00 | 71 | 1030.9 |
| 20260507154020 | 12 | 225 | 24.1 | 35.4 | 0.00 | 0.00 | 0.00 | 73 | 1031.1 |
| 20260507153021 | 12 | 225 | 22.5 | 32.2 | 0.00 | 0.00 | 0.00 | 73 | 1031.1 |
| 20260507151119 | 12 | 224 | 14.5 | 22.5 | 0.00 | 0.00 | 0.00 | 75 | 1031.2 |
| 20260507145219 | 11 | 224 | 17.7 | 25.7 | 0.00 | 0.00 | 0.00 | 76 | 1031.1 |
| 20260507143219 | 11 | 225 | 16.1 | 22.5 | 0.00 | 0.00 | 0.00 | 77 | 1031.0 |
| 20260507143119 | 11 | 228 | 16.1 | 20.9 | 0.00 | 0.00 | 0.00 | 77 | 1031.1 |
| 20260507142121 | 11 | 225 | 16.1 | 22.5 | 0.00 | 0.00 | 0.00 | 78 | 1031.0 |
| 20260507141119 | 11 | 222 | 16.1 | 20.9 | 0.00 | 0.00 | 0.00 | 78 | 1030.9 |
| 20260507140119 | 11 | 225 | 22.5 | 32.2 | 0.00 | 0.00 | 0.00 | 77 | 1030.8 |
| 20260507135219 | 11 | 224 | 22.5 | 29.0 | 0.00 | 0.00 | 0.00 | 77 | 1030.8 |
| 20260507134219 | 11 | 221 | 17.7 | 25.7 | 0.00 | 0.00 | 0.00 | 77 | 1030.6 |
| 20260507133221 | 11 | 222 | 17.7 | 22.5 | 0.00 | 0.00 | 0.00 | 78 | 1030.7 |
| 20260507132320 | 11 | 225 | 19.3 | 29.0 | 0.00 | 0.00 | 0.00 | 78 | 1030.6 |
| 20260507131419 | 11 | 226 | 19.3 | 29.0 | 0.00 | 0.00 | 0.00 | 78 | 1030.6 |
| 20260507125421 | 11 | 228 | 20.9 | 27.4 | 0.00 | 0.00 | 0.00 | 79 | 1030.6 |
| 20260507123421 | 11 | 225 | 19.3 | 27.4 | 0.00 | 0.00 | 0.00 | 79 | 1030.5 |
| 20260507122519 | 11 | 228 | 19.3 | 27.4 | 0.00 | 0.00 | 0.00 | 79 | 1030.5 |
| 20260507121520 | 11 | 224 | 19.3 | 22.5 | 0.00 | 0.00 | 0.00 | 79 | 1030.5 |
| 20260507120523 | 11 | 228 | 24.1 | 29.0 | 0.00 | 0.00 | 0.00 | 79 | 1030.5 |
| 20260507115521 | 11 | 225 | 19.3 | 25.7 | 0.00 | 0.00 | 0.00 | 79 | 1030.6 |
| 20260507114619 | 11 | 226 | 19.3 | 24.1 | 0.00 | 0.00 | 0.00 | 79 | 1030.5 |
| 20260507113620 | 11 | 206 | 24.1 | 30.6 | 0.00 | 0.00 | 0.00 | 80 | 1030.4 |
| 20260507111719 | 12 | 215 | 19.3 | 22.5 | 0.00 | 0.00 | 0.00 | 78 | 1030.4 |
| 20260507110722 | 12 | 219 | 19.3 | 32.2 | 0.00 | 0.00 | 0.00 | 79 | 1030.5 |
| 20260507105728 | 12 | 211 | 24.1 | 33.8 | 0.00 | 0.00 | 0.00 | 79 | 1030.6 |
| 20260507104821 | 12 | 215 | 19.3 | 24.1 | 0.00 | 0.00 | 0.00 | 79 | 1030.6 |
| 20260507104721 | 12 | 219 | 17.7 | 25.7 | 0.00 | 0.00 | 0.00 | 79 | 1030.6 |
| 20260507103819 | 12 | 222 | 17.7 | 24.1 | 0.00 | 0.00 | 0.00 | 79 | 1030.6 |
| 20260507100819 | 12 | 222 | 22.5 | 29.0 | 0.00 | 0.00 | 0.00 | 79 | 1030.6 |
| 20260507095822 | 12 | 224 | 24.1 | 32.2 | 0.00 | 0.00 | 0.00 | 79 | 1030.5 |
| 20260507093820 | 12 | 222 | 27.4 | 37.0 | 0.00 | 0.00 | 0.00 | 78 | 1030.6 |
| 20260507092822 | 12 | 215 | 22.5 | 32.2 | 0.00 | 0.00 | 0.00 | 78 | 1030.6 |
| 20260507091821 | 12 | 226 | 22.5 | 33.8 | 0.00 | 0.00 | 0.00 | 78 | 1030.8 |
| 20260507090919 | 12 | 228 | 19.3 | 25.7 | 0.00 | 0.00 | 0.00 | 76 | 1030.6 |
| 20260507085922 | 12 | 226 | 29.0 | 43.5 | 0.00 | 0.00 | 0.00 | 77 | 1030.6 |
| 20260507084921 | 12 | 230 | 24.1 | 38.6 | 0.00 | 0.00 | 0.00 | 77 | 1030.6 |
| 20260507083921 | 12 | 232 | 24.1 | 32.2 | 0.00 | 0.00 | 0.00 | 77 | 1030.6 |
| 20260507082920 | 12 | 226 | 29.0 | 41.8 | 0.00 | 0.00 | 0.00 | 77 | 1030.3 |
| 20260507081921 | 12 | 229 | 27.4 | 40.2 | 0.00 | 0.00 | 0.00 | 76 | 1030.6 |
| 20260507080918 | 12 | 224 | 30.6 | 43.5 | 0.00 | 0.00 | 0.00 | 75 | 1030.7 |
| 20260507075019 | 13 | 224 | 29.0 | 35.4 | 0.00 | 0.00 | 0.00 | 76 | 1030.7 |
| 20260507074020 | 13 | 226 | 22.5 | 30.6 | 0.00 | 0.00 | 0.00 | 76 | 1030.6 |
| 20260507073118 | 13 | 226 | 22.5 | 30.6 | 0.00 | 0.00 | 0.00 | 75 | 1030.8 |
| 20260507072119 | 13 | 224 | 22.5 | 29.0 | 0.00 | 0.00 | 0.00 | 76 | 1030.8 |
| 20260507070121 | 13 | 226 | 30.6 | 40.2 | 0.00 | 0.00 | 0.00 | 75 | 1030.8 |
| 20260507065216 | 13 | 228 | 25.7 | 35.4 | 0.00 | 0.00 | 0.00 | 74 | 1030.7 |
| 20260507064215 | 13 | 223 | 25.7 | 33.8 | 0.00 | 0.00 | 0.00 | 75 | 1030.8 |
| 20260507063314 | 13 | 227 | 19.3 | 27.4 | 0.00 | 0.00 | 0.00 | 74 | 1030.8 |
| 20260507062316 | 13 | 222 | 27.4 | 33.8 | 0.00 | 0.00 | 0.00 | 75 | 1030.7 |
| 20260507061317 | 14 | 225 | 25.7 | 38.6 | 0.00 | 0.00 | 0.00 | 75 | 1030.7 |
| 20260507055317 | 14 | 224 | 22.5 | 30.6 | 0.00 | 0.00 | 0.00 | 76 | 1030.6 |
| 20260507054315 | 14 | 234 | 22.5 | 29.0 | 0.00 | 0.00 | 0.00 | 75 | 1030.6 |